Tracking 31027 objects as of 19-Jul-2025
HD Live streaming from Space Station
objects crossing your sky now

STARLINK-6369

Track STARLINK-6369 now!
10-day predictions
STARLINK-6369 is classified as:


NORAD ID: 57374
Int'l Code: 2023-099AY
Perigee: 565.4 km
Apogee: 567.0 km
Inclination: 43.0 °
Period: 95.8 minutes
Semi major axis: 6937 km
RCS: Unknown
Launch date: July 16, 2023
Source: United States (US)
Launch site: AIR FORCE EASTERN TEST RANGE (AFETR)
Your satellite tracking list
STARLINK-1578
Track 1 satellite(s)




NASA's NSSDC Master Catalog

Two Line Element Set (TLE):
1 57374U 23099AY  25199.87172414 -.00000116  00000-0  64684-5 0  9991
2 57374  43.0045  53.4811 0001171 261.5903  98.4807 15.02535029111249
Source of the keplerian elements: AFSPC